Powrót do katalogu

BREEZE-M DEB

TANK

AktywnyHEO
NORAD 28528·DEBRIS·🇷🇺 Russia

Wystrzelony Feb 3, 2005 z Baikonur Cosmodrome

Loading…

Następne Przeloty (najbliższe 24 godziny)

TLE

ŚwieżeSource: Space-Track

Epoka: Sep 13, 2026, 10:46 UTC

1 28528U 05003C   26256.44920871  .00002743  00000-0  40468-3 0  9990
2 28528  49.5669  45.2588 5007167 277.4353  30.6556  5.61815578417165

Śledź BREEZE-M DEB w czasie rzeczywistym z AllMySat

Download on the App Store